GW6799 Weather Reports


Display with metric or nautical units.
time (UTC)temp
F
wind
direction
speed
MPH
gust
MPH
rain 1hr
in
rain 24hr
in
rain mn
in
humidity
%
barometer
mb
20260505200503 84 206 10.0 17.0 0.00 0.00 0.00 61 1005.3
20260505200009 84 219 9.0 15.0 0.00 0.00 0.00 61 1005.4
20260505195506 84 205 9.0 15.0 0.00 0.00 0.00 60 1005.6
20260505195006 85 191 8.0 15.0 0.00 0.00 0.00 60 1005.4
20260505194508 85 240 9.0 15.0 0.00 0.00 0.00 59 1005.5
20260505194007 85 279 8.0 16.0 0.00 0.00 0.00 60 1005.5
20260505193505 84 223 10.0 18.0 0.00 0.00 0.00 59 1005.5
20260505193009 85 219 11.0 21.0 0.00 0.00 0.00 60 1005.4
20260505192508 85 217 11.0 21.0 0.00 0.00 0.00 57 1005.4
20260505192005 84 234 9.0 19.0 0.00 0.00 0.00 60 1005.4
20260505191509 84 214 10.0 15.0 0.00 0.00 0.00 65 1005.4
20260505191006 84 204 9.0 16.0 0.00 0.00 0.00 64 1005.3
20260505190505 83 163 8.0 16.0 0.00 0.00 0.00 63 1005.3
20260505190028 83 211 8.0 16.0 0.00 0.00 0.00 65 1005.4
20260505185508 83 219 6.0 16.0 0.00 0.00 0.00 66 1005.3
20260505185009 82 360 10.0 16.0 0.00 0.00 0.00 66 1005.4
20260505184531 82 238 9.0 16.0 0.00 0.00 0.00 65 1005.5
20260505184008 82 360 10.0 17.0 0.00 0.00 0.00 67 1005.5
20260505183503 82 216 12.0 17.0 0.00 0.00 0.00 67 1005.5
20260505183030 82 214 8.0 14.0 0.00 0.00 0.00 67 1005.5
20260505182507 82 185 9.0 18.0 0.00 0.00 0.00 68 1005.5
20260505182006 81 196 9.0 18.0 0.00 0.00 0.00 69 1005.5
20260505181534 81 221 9.0 18.0 0.00 0.00 0.00 69 1005.6
20260505181008 81 197 10.0 20.0 0.00 0.00 0.00 69 1005.5
20260505180511 81 192 11.0 20.0 0.00 0.00 0.00 68 1005.6
20260505180038 82 360 12.0 18.0 0.00 0.00 0.00 67 1005.5
20260505175506 82 202 11.0 18.0 0.00 0.00 0.00 68 1005.5
20260505175006 81 182 12.0 22.0 0.00 0.00 0.00 68 1005.4
20260505174526 81 213 11.0 22.0 0.00 0.00 0.00 69 1005.5
20260505174010 81 169 11.0 21.0 0.00 0.00 0.00 69 1005.5
20260505173510 80 213 10.0 18.0 0.00 0.00 0.00 70 1005.4
20260505173030 80 179 11.0 20.0 0.00 0.00 0.00 71 1005.4
20260505172506 79 234 12.0 20.0 0.00 0.00 0.00 71 1005.5
20260505172008 79 205 10.0 22.0 0.00 0.00 0.00 72 1005.4
20260505171527 78 217 11.0 22.0 0.00 0.00 0.00 72 1005.4
20260505171007 78 145 12.0 18.0 0.00 0.00 0.00 73 1005.4
20260505170504 77 181 10.0 18.0 0.00 0.00 0.00 74 1005.7
20260505170029 77 222 8.0 18.0 0.00 0.00 0.00 74 1005.7
20260505165505 77 202 9.0 18.0 0.00 0.00 0.00 74 1005.5
20260505165005 77 208 13.0 17.0 0.00 0.00 0.00 74 1005.3
20260505164509 77 360 11.0 16.0 0.00 0.00 0.00 74 1005.1
20260505164007 77 209 8.0 18.0 0.00 0.00 0.00 75 1005.9
20260505163510 77 206 10.0 18.0 0.00 0.00 0.00 74 1005.3
20260505163012 77 194 10.0 17.0 0.00 0.00 0.00 74 1005.5
20260505162503 77 180 10.0 21.0 0.00 0.00 0.00 74 1005.7
20260505162006 77 215 14.0 21.0 0.00 0.00 0.00 74 1006.0
20260505161509 77 207 11.0 19.0 0.00 0.00 0.00 74 1005.3
20260505161003 77 178 12.0 21.0 0.00 0.00 0.00 74 1005.4
20260505160506 77 219 13.0 21.0 0.00 0.00 0.00 73 1005.4
20260505153010 76 196 8.0 22.0 0.00 0.00 0.00 76 1005.1
20260505152503 76 164 15.0 22.0 0.00 0.00 0.00 76 1005.1
20260505152008 76 211 10.0 18.0 0.00 0.00 0.00 76 1005.4
20260505151512 76 219 10.0 16.0 0.00 0.00 0.00 76 1005.5
20260505151004 76 236 8.0 23.0 0.00 0.00 0.00 77 1005.4
20260505150504 75 219 12.0 23.0 0.00 0.00 0.00 77 1005.4
20260505140508 73 182 14.0 23.0 0.00 0.00 0.00 79 1005.2
20260505125008 72 208 6.0 11.0 0.00 0.00 0.00 82 1005.0
20260505124512 71 173 7.0 18.0 0.00 0.00 0.00 83 1004.9
20260505124004 71 158 8.0 18.0 0.00 0.00 0.00 83 1004.7
20260505123508 71 194 8.0 16.0 0.00 0.00 0.00 83 1004.7
20260505123014 71 193 6.0 11.0 0.00 0.00 0.00 83 1004.8
20260505122504 71 217 6.0 11.0 0.00 0.00 0.00 84 1004.9
20260505122009 70 205 6.0 16.0 0.00 0.00 0.00 84 1004.7
20260505121525 70 159 6.0 16.0 0.00 0.00 0.00 84 1004.7
20260505121006 70 174 5.0 12.0 0.00 0.00 0.00 84 1004.7
20260505120506 70 165 7.0 12.0 0.00 0.00 0.00 85 1004.7
20260505120011 70 192 5.0 11.0 0.00 0.00 0.00 84 1004.7
20260505115507 70 193 5.0 9.0 0.00 0.00 0.00 84 1004.7
20260505115007 70 174 4.0 13.0 0.00 0.00 0.00 84 1004.6
20260505114515 70 172 7.0 13.0 0.00 0.00 0.00 84 1004.6
20260505114008 70 360 6.0 13.0 0.00 0.00 0.00 84 1004.6
20260505113506 70 170 7.0 13.0 0.00 0.00 0.00 83 1004.6
20260505113014 71 185 6.0 11.0 0.00 0.00 0.00 83 1004.6
20260505112510 71 171 6.0 12.0 0.00 0.00 0.00 83 1004.5
20260505112007 71 360 8.0 12.0 0.00 0.00 0.00 83 1004.4
20260505111514 71 172 7.0 12.0 0.00 0.00 0.00 83 1004.3
20260505111007 71 216 7.0 15.0 0.00 0.00 0.00 83 1004.4
20260505110508 71 200 8.0 15.0 0.00 0.00 0.00 83 1004.3
20260505102007 71 200 7.0 12.0 0.00 0.00 0.00 83 1004.7
20260505101514 71 178 6.0 13.0 0.00 0.00 0.00 83 1004.6
20260505101010 71 228 7.0 16.0 0.00 0.00 0.00 83 1004.5
20260505100507 70 223 8.0 16.0 0.00 0.00 0.00 84 1004.4
20260505100021 70 173 6.0 13.0 0.00 0.00 0.00 84 1004.5
20260505095508 70 200 9.0 15.0 0.00 0.00 0.00 84 1004.5
20260505095006 70 212 8.0 15.0 0.00 0.00 0.00 84 1004.5
20260505094516 70 158 7.0 13.0 0.00 0.00 0.00 84 1004.4
20260505094008 70 180 8.0 14.0 0.00 0.00 0.00 84 1004.5
20260505093506 70 194 8.0 15.0 0.00 0.00 0.00 84 1004.6
20260505093024 70 169 8.0 15.0 0.00 0.00 0.00 84 1004.7
20260505092508 70 185 8.0 15.0 0.00 0.00 0.00 84 1004.8
20260505092008 70 182 8.0 14.0 0.00 0.00 0.00 84 1004.7
20260505091517 70 213 7.0 15.0 0.00 0.00 0.00 84 1005.0
20260505091006 70 207 10.0 15.0 0.00 0.00 0.00 84 1004.9
20260505090507 70 213 9.0 17.0 0.00 0.00 0.00 84 1004.8
20260505090014 70 219 8.0 17.0 0.00 0.00 0.00 84 1004.9
20260505085508 70 198 9.0 17.0 0.00 0.00 0.00 84 1004.9
20260505085011 70 171 6.0 16.0 0.00 0.00 0.00 83 1004.7
20260505084518 70 215 7.0 16.0 0.00 0.00 0.00 83 1004.8
20260505084008 70 163 8.0 14.0 0.00 0.00 0.00 83 1004.7
20260505083509 70 220 8.0 14.0 0.00 0.00 0.00 83 1004.7
20260505083018 70 196 7.0 13.0 0.00 0.00 0.00 83 1004.7
20260505082509 70 185 8.0 13.0 0.00 0.00 0.00 82 1004.8
20260505082008 70 195 7.0 14.0 0.00 0.00 0.00 82 1004.8
20260505081518 70 184 8.0 14.0 0.00 0.00 0.00 82 1004.9
20260505081008 70 194 7.0 14.0 0.00 0.00 0.00 82 1005.1
20260505080508 71 168 7.0 12.0 0.00 0.00 0.00 81 1005.1
20260505080018 71 159 8.0 14.0 0.00 0.00 0.00 81 1005.1
20260505075506 71 171 8.0 14.0 0.00 0.00 0.00 81 1005.2
20260505075003 71 195 7.0 16.0 0.00 0.00 0.00 81 1005.2
20260505074516 71 155 7.0 16.0 0.00 0.00 0.00 80 1005.3
20260505074004 71 199 8.0 14.0 0.00 0.00 0.00 80 1005.3
20260505073503 71 360 10.0 14.0 0.00 0.00 0.00 80 1005.3
20260505073016 71 187 7.0 14.0 0.00 0.00 0.00 79 1005.4
20260505072503 71 178 9.0 17.0 0.00 0.00 0.00 79 1005.5
20260505072002 71 207 7.0 17.0 0.00 0.00 0.00 79 1005.5
20260505071523 71 173 8.0 17.0 0.00 0.00 0.00 79 1005.6
20260505071002 71 189 8.0 17.0 0.00 0.00 0.00 79 1005.7
20260505070504 71 211 7.0 14.0 0.00 0.00 0.00 78 1005.7
20260505070016 72 151 8.0 14.0 0.00 0.00 0.00 78 1005.7
20260505065504 71 158 8.0 15.0 0.00 0.00 0.00 78 1005.8
20260505065007 72 155 6.0 15.0 0.00 0.00 0.00 78 1005.8
20260505064518 72 171 9.0 16.0 0.00 0.00 0.00 78 1005.9
20260505064003 71 196 8.0 17.0 0.00 0.00 0.00 78 1005.8
20260505063503 72 198 8.0 17.0 0.00 0.00 0.00 77 1005.9
20260505063029 72 175 9.0 19.0 0.00 0.00 0.00 77 1006.0
20260505062504 72 175 9.0 19.0 0.00 0.00 0.00 77 1005.9
20260505062003 71 198 9.0 19.0 0.00 0.00 0.00 77 1005.8
20260505061520 71 163 10.0 18.0 0.00 0.00 0.00 77 1005.8
20260505061004 71 183 10.0 18.0 0.00 0.00 0.00 77 1006.0
20260505060502 71 160 8.0 18.0 0.00 0.00 0.00 77 1005.9
20260505060017 71 198 8.0 15.0 0.00 0.00 0.00 77 1005.8
20260505055506 71 176 8.0 15.0 0.00 0.00 0.00 76 1005.8
20260505055003 71 153 9.0 15.0 0.00 0.00 0.00 76 1005.9
20260505054516 71 154 9.0 15.0 0.00 0.00 0.00 76 1005.9
20260505054004 71 205 8.0 16.0 0.00 0.00 0.00 76 1006.0
20260505053507 72 184 8.0 16.0 0.00 0.00 0.00 76 1006.1
20260505053017 72 164 7.0 15.0 0.00 0.00 0.00 75 1006.0
20260505052504 72 167 8.0 16.0 0.00 0.00 0.00 75 1006.2
20260505052009 72 191 7.0 16.0 0.00 0.00 0.00 75 1006.3
20260505051532 72 162 7.0 14.0 0.00 0.00 0.00 75 1006.4
20260505051006 72 187 8.0 16.0 0.00 0.00 0.00 75 1006.4
20260505050507 72 167 11.0 18.0 0.00 0.00 0.00 75 1006.4
20260505041536 72 164 7.0 15.0 0.00 0.00 0.00 73 1006.7
20260505041004 72 152 7.0 16.0 0.00 0.00 0.00 73 1006.7
20260505040509 73 193 7.0 16.0 0.00 0.00 0.00 73 1006.8
20260505040019 73 183 7.0 15.0 0.00 0.00 0.00 72 1006.7
20260505035503 73 170 7.0 13.0 0.00 0.00 0.00 72 1006.6
20260505035007 73 175 9.0 15.0 0.00 0.00 0.00 72 1006.7
20260505034520 73 179 8.0 17.0 0.00 0.00 0.00 72 1006.7
20260505034003 73 170 7.0 17.0 0.00 0.00 0.00 72 1006.8
20260505033508 73 157 7.0 14.0 0.00 0.00 0.00 71 1006.8
20260505033020 73 196 7.0 14.0 0.00 0.00 0.00 71 1006.9
20260505032503 73 177 7.0 15.0 0.00 0.00 0.00 71 1007.0
20260505032008 73 156 8.0 15.0 0.00 0.00 0.00 71 1006.9
20260505031528 73 182 8.0 15.0 0.00 0.00 0.00 71 1006.9
20260505031004 73 185 7.0 15.0 0.00 0.00 0.00 70 1006.8
20260505030507 74 173 9.0 16.0 0.00 0.00 0.00 70 1006.8
20260505030018 74 181 5.0 16.0 0.00 0.00 0.00 70 1006.8
20260505025509 74 175 6.0 17.0 0.00 0.00 0.00 70 1007.0
20260505025010 74 190 8.0 17.0 0.00 0.00 0.00 69 1006.9
20260505024520 74 208 9.0 17.0 0.00 0.00 0.00 69 1006.8
20260505024003 74 161 10.0 15.0 0.00 0.00 0.00 69 1006.7
20260505023508 74 180 8.0 17.0 0.00 0.00 0.00 69 1006.7
20260505023018 74 216 9.0 17.0 0.00 0.00 0.00 69 1006.6
20260505022503 74 178 9.0 16.0 0.00 0.00 0.00 69 1006.7
20260505022007 74 156 7.0 16.0 0.00 0.00 0.00 68 1006.7
20260505021520 74 159 8.0 15.0 0.00 0.00 0.00 68 1006.7
20260505021002 74 179 8.0 15.0 0.00 0.00 0.00 68 1006.6
20260505020507 74 200 6.0 18.0 0.00 0.00 0.00 68 1006.7
20260505020020 74 182 7.0 18.0 0.00 0.00 0.00 68 1006.7
20260505015504 75 186 8.0 16.0 0.00 0.00 0.00 68 1006.6
20260505015008 75 178 11.0 17.0 0.00 0.00 0.00 67 1006.4
20260505014527 75 189 9.0 16.0 0.00 0.00 0.00 67 1006.5
20260505014002 75 199 9.0 15.0 0.00 0.00 0.00 67 1006.5
20260505013507 75 172 9.0 20.0 0.00 0.00 0.00 67 1006.6
20260505013021 75 171 11.0 20.0 0.00 0.00 0.00 67 1006.4
20260505012505 75 189 10.0 15.0 0.00 0.00 0.00 66 1006.4
20260505012010 75 179 8.0 15.0 0.00 0.00 0.00 66 1006.5
20260505011520 75 217 8.0 15.0 0.00 0.00 0.00 66 1006.4
20260505011004 75 161 10.0 14.0 0.00 0.00 0.00 66 1006.5
20260505010510 75 189 8.0 14.0 0.00 0.00 0.00 66 1006.5
20260505010020 76 198 7.0 15.0 0.00 0.00 0.00 65 1006.6
20260505005509 76 206 9.0 14.0 0.00 0.00 0.00 65 1006.6
20260505005010 76 181 7.0 15.0 0.00 0.00 0.00 64 1006.6
20260505004522 76 173 8.0 20.0 0.00 0.00 0.00 63 1006.6
20260505004010 76 206 10.0 21.0 0.00 0.00 0.00 63 1006.6
20260505003507 77 223 10.0 23.0 0.00 0.00 0.00 62 1006.7
20260505003027 77 178 13.0 23.0 0.00 0.00 0.00 62 1006.7
20260505002511 77 197 11.0 19.0 0.00 0.00 0.00 62 1006.8
20260505002013 77 188 10.0 19.0 0.00 0.00 0.00 62 1006.7
20260505001520 77 186 9.0 20.0 0.00 0.00 0.00 62 1006.9
20260505001009 78 157 11.0 18.0 0.00 0.00 0.00 61 1006.8
20260505000507 78 171 9.0 19.0 0.00 0.00 0.00 62 1006.8
20260505000031 78 161 9.0 19.0 0.00 0.00 0.00 61 1006.7
20260504235507 78 173 9.0 16.0 0.00 0.00 0.00 60 1006.8
20260504235012 78 167 7.0 16.0 0.00 0.00 0.00 60 1006.7
20260504234523 78 175 9.0 21.0 0.00 0.00 0.00 60 1006.8
20260504234010 78 173 11.0 21.0 0.00 0.00 0.00 60 1006.8
20260504233506 78 221 12.0 20.0 0.00 0.00 0.00 60 1007.0
20260504233020 78 169 12.0 19.0 0.00 0.00 0.00 59 1006.9
20260504232510 79 167 12.0 18.0 0.00 0.00 0.00 59 1006.9
20260504232010 79 179 10.0 18.0 0.00 0.00 0.00 59 1007.0
20260504231533 79 211 9.0 21.0 0.00 0.00 0.00 59 1007.2
20260504231010 79 158 10.0 21.0 0.00 0.00 0.00 59 1007.2
20260504230511 79 188 12.0 22.0 0.00 0.00 0.00 58 1007.1
20260504230024 79 184 13.0 20.0 0.00 0.00 0.00 57 1007.2
20260504225510 80 171 11.0 18.0 0.00 0.00 0.00 57 1007.4
20260504225004 80 157 12.0 18.0 0.00 0.00 0.00 58 1007.5
20260504224508 80 201 9.0 22.0 0.00 0.00 0.00 58 1007.4
20260504224003 79 121 8.0 22.0 0.00 0.00 0.00 59 1007.4
20260504223503 79 163 10.0 21.0 0.00 0.00 0.00 58 1007.4
20260504223004 80 174 7.0 21.0 0.00 0.00 0.00 57 1007.3
20260504222503 80 202 11.0 21.0 0.00 0.00 0.00 57 1007.3
20260504222003 80 167 8.0 19.0 0.00 0.00 0.00 57 1007.5
20260504221504 80 167 9.0 18.0 0.00 0.00 0.00 57 1007.5
20260504221003 80 134 11.0 21.0 0.00 0.00 0.00 56 1007.5
20260504220503 80 169 10.0 25.0 0.00 0.00 0.00 56 1007.6
20260504220005 80 201 13.0 23.0 0.00 0.00 0.00 55 1007.6
20260504215505 80 188 8.0 19.0 0.00 0.00 0.00 56 1007.5
20260504215006 80 360 10.0 19.0 0.00 0.00 0.00 56 1007.7
20260504214503 80 180 9.0 19.0 0.00 0.00 0.00 56 1007.9
20260504214002 80 167 10.0 21.0 0.00 0.00 0.00 55 1007.8
20260504213503 79 158 12.0 23.0 0.00 0.00 0.00 55 1007.9
20260504213006 79 202 15.0 23.0 0.00 0.00 0.00 55 1008.1
20260504212503 80 185 14.0 23.0 0.00 0.00 0.00 54 1008.2
20260504212001 80 171 12.0 18.0 0.00 0.00 0.00 53 1008.4
20260504211503 80 167 9.0 17.0 0.00 0.00 0.00 54 1008.3
20260504211003 80 155 10.0 23.0 0.00 0.00 0.00 53 1008.4
20260504210503 80 208 13.0 23.0 0.00 0.00 0.00 53 1008.4
20260504210011 80 196 12.0 21.0 0.00 0.00 0.00 53 1008.5
20260504205504 80 208 8.0 20.0 0.00 0.00 0.00 55 1008.5
20260504205007 80 171 12.0 20.0 0.00 0.00 0.00 53 1008.7
20260504204510 79 179 10.0 22.0 0.00 0.00 0.00 54 1008.7
20260504204004 79 206 13.0 22.0 0.00 0.00 0.00 53 1009.0
20260504203503 79 205 13.0 25.0 0.00 0.00 0.00 54 1009.0
20260504203006 79 175 11.0 25.0 0.00 0.00 0.00 53 1009.2
20260504202503 79 138 10.0 24.0 0.00 0.00 0.00 52 1009.3
20260504202004 79 153 11.0 24.0 0.00 0.00 0.00 53 1009.4
20260504201509 79 182 10.0 22.0 0.00 0.00 0.00 52 1009.4
20260504201008 79 182 8.0 22.0 0.00 0.00 0.00 55 1009.5